Weather History for Beaver Island, MI

Change the Weather History Date:

Sunday, November 11, 2012

  Actual Average Record
Temperature  
Mean Temperature 56 °F -  
Max Temperature 65 °F 41 °F 65 °F (2012)
Min Temperature 47 °F 30 °F 19 °F (1980)
Degree Days  
Heating Degree Days 9    
Growing Degree Days 6 (Base 50)    
Moisture  
Dew Point 48 °F    
Average Humidity 70    
Maximum Humidity 90    
Minimum Humidity 57    
Precipitation  
Precipitation 0.00 in - - ()
Sea Level Pressure  
Sea Level Pressure 29.77 in    
Wind  
Wind Speed 9 mph (South)    
Max Wind Speed 20 mph    
Max Gust Speed 33 mph    
Visibility 9 miles    
Events Rain    
Averages and records for this station are not official NWS values.
T = Trace of Precipitation, MM = Missing Value Source: NWS Daily Summary

Daily Weather History Graph

Daily Weather History Graph

Search for Another Location

Airport:

Trip Planner

Search our weather history database for the weather conditions in past years. The results will help you decide how hot, cold, wet, or windy it might be!

Date:

Astronomy

Nov. 11, 2012 Rise Set
Actual Time 7:36 AM EST 5:15 PM EST
Civil Twilight 7:05 AM EST 5:47 PM EST
Nautical Twilight 6:29 AM EST 6:22 PM EST
Astronomical Twilight 5:54 AM EST 6:57 PM EST
Moon 4:43 AM EST (11/11) 3:43 PM EST (11/11)
Length of Visible Light 10h 42m
Length of Day
9h 38m
Waning Crescent, 7% of the Moon is Illuminated
Nov 11
Waning Crescent
Nov 13
New
Nov 20
First Quarter
Nov 28
Full
Dec 6
Last Quarter

Hourly Weather History & Observations

Time (EST) Temp. Dew Point Humidity Pressure Visibility Wind Dir Wind Speed Gust Speed Precip Events Conditions
12:16 AM 48.2 °F 45.0 °F 89% 29.85 in 4.0 mi East 3.5 mph - N/A   Scattered Clouds
12:37 AM 47.7 °F 44.6 °F 89% 29.84 in 3.0 mi ESE 3.5 mph - N/A   Mostly Cloudy
12:56 AM 49.3 °F 46.6 °F 90% 29.85 in 4.0 mi Calm Calm - N/A   Mostly Cloudy
1:16 AM 48.4 °F 45.3 °F 89% 29.83 in 3.0 mi ESE 5.8 mph - N/A Rain Light Rain
1:37 AM 49.3 °F 46.4 °F 90% 29.84 in 4.0 mi East 5.8 mph - N/A   Mostly Cloudy
1:56 AM 50.5 °F 47.7 °F 90% 29.83 in 5.0 mi ESE 4.6 mph - N/A Rain Light Rain
2:16 AM 49.3 °F 46.4 °F 90% 29.83 in 2.5 mi ESE 5.8 mph - N/A   Mostly Cloudy
2:37 AM 48.6 °F 45.9 °F 90% 29.83 in 3.0 mi ESE 5.8 mph - N/A   Mostly Cloudy
2:56 AM 50.5 °F 47.8 °F 90% 29.84 in 5.0 mi ESE 5.8 mph - N/A   Scattered Clouds
3:16 AM 50.0 °F 46.9 °F 89% 29.84 in 5.0 mi SE 4.6 mph - N/A   Clear
3:36 AM 52.2 °F 48.2 °F 86% 29.83 in 10.0 mi ESE 3.5 mph - N/A   Scattered Clouds
3:56 AM 53.8 °F 48.4 °F 82% 29.83 in 10.0 mi South 4.6 mph - N/A   Scattered Clouds
4:17 AM 57.2 °F 48.6 °F 73% 29.83 in 10.0 mi South 8.1 mph - N/A   Clear
4:36 AM 58.1 °F 48.6 °F 71% 29.83 in 10.0 mi SSW 11.5 mph 18.4 mph N/A   Clear
4:56 AM 59.2 °F 48.6 °F 68% 29.83 in 10.0 mi South 12.7 mph 25.3 mph N/A   Clear
5:17 AM 59.4 °F 47.8 °F 66% 29.83 in 10.0 mi SSW 15.0 mph 26.5 mph N/A   Clear
5:36 AM 59.4 °F 47.3 °F 64% 29.83 in 10.0 mi South 16.1 mph 27.6 mph N/A   Clear
5:56 AM 59.9 °F 46.9 °F 62% 29.83 in 10.0 mi SSW 18.4 mph 33.4 mph N/A   Clear
6:36 AM 59.4 °F 46.4 °F 62% 29.82 in 10.0 mi South 11.5 mph 24.2 mph N/A   Clear
6:56 AM 59.2 °F 46.6 °F 63% 29.83 in 10.0 mi South 15.0 mph 24.2 mph N/A   Clear
7:17 AM 59.0 °F 46.4 °F 63% 29.83 in 10.0 mi SSW 12.7 mph 26.5 mph N/A   Clear
7:36 AM 59.0 °F 46.4 °F 63% 29.83 in 10.0 mi South 13.8 mph 24.2 mph N/A   Clear
7:57 AM 58.3 °F 46.2 °F 64% 29.82 in 10.0 mi South 8.1 mph 17.3 mph N/A   Clear
8:36 AM 58.1 °F 46.4 °F 65% 29.83 in 10.0 mi South 8.1 mph 19.6 mph N/A   Clear
8:57 AM 59.4 °F 46.8 °F 63% 29.83 in 10.0 mi South 13.8 mph 21.9 mph N/A   Clear
9:16 AM 60.1 °F 46.9 °F 62% 29.83 in 10.0 mi South 13.8 mph 25.3 mph N/A   Clear
9:36 AM 60.8 °F 47.3 °F 61% 29.83 in 10.0 mi South 13.8 mph 23.0 mph N/A   Clear
9:57 AM 61.9 °F 47.5 °F 59% 29.82 in 10.0 mi SSW 13.8 mph 24.2 mph N/A   Clear
10:36 AM 62.2 °F 47.7 °F 59% 29.81 in 10.0 mi South 15.0 mph 25.3 mph N/A   Clear
10:56 AM 62.6 °F 47.8 °F 58% 29.81 in 10.0 mi South 15.0 mph 23.0 mph N/A   Clear
11:16 AM 62.8 °F 47.8 °F 58% 29.82 in 10.0 mi South 17.3 mph 26.5 mph N/A   Clear
11:37 AM 63.1 °F 47.8 °F 57% 29.81 in 10.0 mi South 15.0 mph 28.8 mph N/A   Clear
11:56 AM 63.7 °F 48.2 °F 57% 29.80 in 10.0 mi South 15.0 mph 24.2 mph N/A   Clear
12:16 PM 62.6 °F 47.8 °F 58% 29.79 in 10.0 mi South 12.7 mph 25.3 mph N/A   Mostly Cloudy
12:37 PM 63.1 °F 48.2 °F 58% 29.78 in 10.0 mi South 16.1 mph 24.2 mph N/A   Overcast
1:17 PM 63.1 °F 48.2 °F 58% 29.78 in 10.0 mi South 11.5 mph 21.9 mph N/A   Mostly Cloudy
1:36 PM 63.1 °F 48.4 °F 59% 29.78 in 10.0 mi South 10.4 mph 17.3 mph N/A   Overcast
1:56 PM 63.1 °F 48.7 °F 59% 29.77 in 10.0 mi South 6.9 mph - N/A   Overcast
2:17 PM 63.1 °F 48.7 °F 59% 29.76 in 10.0 mi South 8.1 mph - N/A   Overcast
2:36 PM 63.1 °F 49.1 °F 60% 29.76 in 10.0 mi South 10.4 mph 16.1 mph N/A   Overcast
2:56 PM 61.9 °F 49.1 °F 63% 29.75 in 10.0 mi South 10.4 mph 16.1 mph N/A   Mostly Cloudy
3:16 PM 61.7 °F 49.5 °F 64% 29.75 in 10.0 mi SSW 8.1 mph - N/A   Overcast
3:36 PM 61.9 °F 49.3 °F 63% 29.74 in 10.0 mi South 8.1 mph - N/A   Overcast
3:57 PM 61.9 °F 49.6 °F 64% 29.72 in 10.0 mi SE 8.1 mph - N/A   Mostly Cloudy
4:16 PM 61.9 °F 49.6 °F 64% 29.72 in 10.0 mi South 5.8 mph 16.1 mph N/A   Mostly Cloudy
4:36 PM 62.6 °F 50.2 °F 64% 29.71 in 10.0 mi South 6.9 mph - N/A   Overcast
4:57 PM 63.1 °F 50.4 °F 63% 29.70 in 10.0 mi SSE 8.1 mph - N/A   Mostly Cloudy
5:16 PM 64.0 °F 50.5 °F 61% 29.70 in 10.0 mi South 8.1 mph 16.1 mph N/A   Mostly Cloudy
5:36 PM 63.9 °F 50.5 °F 62% 29.69 in 10.0 mi SSE 10.4 mph 18.4 mph N/A   Overcast
5:57 PM 64.6 °F 50.9 °F 61% 29.68 in 10.0 mi South 8.1 mph 18.4 mph N/A   Overcast
6:16 PM 65.1 °F 50.9 °F 60% 29.68 in 10.0 mi South 9.2 mph 20.7 mph N/A   Overcast
6:37 PM 65.3 °F 50.5 °F 59% 29.68 in 10.0 mi South 13.8 mph 26.5 mph N/A   Overcast
6:56 PM 65.3 °F 50.2 °F 58% 29.67 in 10.0 mi South 12.7 mph 24.2 mph N/A   Overcast
7:16 PM 65.3 °F 50.0 °F 58% 29.66 in 10.0 mi South 12.7 mph 21.9 mph N/A   Overcast
7:37 PM 65.3 °F 49.5 °F 57% 29.66 in 10.0 mi South 17.3 mph 29.9 mph N/A   Overcast
7:56 PM 63.7 °F 50.2 °F 61% 29.66 in 10.0 mi South 9.2 mph 19.6 mph N/A Rain Rain
8:16 PM 61.2 °F 51.8 °F 71% 29.67 in 7.0 mi South 11.5 mph 26.5 mph N/A   Drizzle
8:37 PM 60.8 °F 52.3 °F 74% 29.68 in 7.0 mi SSW 18.4 mph 24.2 mph N/A Rain Rain
8:56 PM 57.2 °F 52.7 °F 85% 29.70 in 4.0 mi SSW 18.4 mph 31.1 mph N/A Rain Light Rain
9:16 PM 54.7 °F 50.9 °F 87% 29.71 in 5.0 mi SSW 19.6 mph 29.9 mph N/A Rain Light Rain
9:37 PM 53.8 °F 49.8 °F 86% 29.72 in 10.0 mi SSW 13.8 mph 21.9 mph N/A Rain Light Rain
9:56 PM 53.1 °F 49.5 °F 88% 29.73 in 10.0 mi SW 12.7 mph 19.6 mph N/A Rain Rain
10:17 PM 53.1 °F 49.5 °F 88% 29.72 in 10.0 mi SSW 12.7 mph 19.6 mph N/A Rain Light Rain
10:36 PM 53.1 °F 49.6 °F 88% 29.73 in 10.0 mi SSW 9.2 mph - N/A   Overcast
10:56 PM 53.1 °F 49.5 °F 88% 29.72 in 10.0 mi SSW 10.4 mph 16.1 mph N/A   Overcast
11:17 PM 53.1 °F 49.3 °F 87% 29.72 in 10.0 mi SSW 12.7 mph 18.4 mph N/A   Overcast
11:36 PM 52.7 °F 48.9 °F 87% 29.73 in 10.0 mi SSW 12.7 mph 24.2 mph N/A Rain Light Rain
11:56 PM 52.3 °F 49.1 °F 89% 29.73 in 10.0 mi SSW 17.3 mph 28.8 mph N/A   Drizzle